Volver al catálogo

BREEZE-M R/B

ActivoHEO
NORAD 37259·ROCKET BODY·🇷🇺 Russia

Lanzado Dec 26, 2010 desde Baikonur Cosmodrome

Loading…

Próximos Pases (próximas 24 horas)

TLE

ActualizadoSource: Space-Track

Época: Sep 14, 2026, 09:58 UTC

1 37259U 10069B   26257.41539080 -.00000164  00000-0  00000-0 0  9996
2 37259  24.7466 337.5734 6137669 226.9290  64.3626  2.21632405127223

Sigue BREEZE-M R/B en tiempo real con AllMySat

Download on the App Store